Location: ?ejeti?ky
(50.4060°N, 14.9016°E)
Time: 22:30:05
(UTC+00:00)

STARLINK-1364 - Pass Details

Date: 04 October 2020
Orbit: 548 x 551 km, 53.0° (Epoch: 23 October)

Event Time Altitude Azimuth Distance (km) Brightness Sun altitude
Exits shadow 01:33:35 20° 68° (ENE) 1,313 6.1 -32.6°
Drops below altitude 10° 01:34:55 10° 72° (ENE) 1,829 7.0 -32.4°
Sets 01:37:10 0° 74° (ENE) 2,725 8.1 -32.2°
